Windom, MN

10:13 AM CDT on April 24, 2017 (GMT -0500)
Windom Municipal

Weather History for KMWM - October, 2012

Change the Weather History Date:

Sunday, October 21, 2012

  Actual Average Record
Temperature  
Mean Temperature 56 °F -  
Max Temperature 68 °F 57 °F 80 °F (1978)
Min Temperature 44 °F 34 °F 18 °F (1982)
Degree Days  
Heating Degree Days 9    
Growing Degree Days 6 (Base 50)    
Moisture  
Dew Point 45 °F    
Average Humidity 75    
Maximum Humidity 93    
Minimum Humidity 46    
Precipitation  
Precipitation 0.00 in - - ()
Sea Level Pressure  
Sea Level Pressure 29.78 in    
Wind  
Wind Speed 12 mph (SW)    
Max Wind Speed 20 mph    
Max Gust Speed 28 mph    
Visibility 10 miles    
Events      
Averages and records for this station are not official NWS values.
T = Trace of Precipitation, MM = Missing Value Source: NWS Daily Summary

Daily Weather History Graph

Daily Weather History Graph

Search for Another Location

Airport or City:

Trip Planner

Search our weather history database for the weather conditions in past years. The results will help you decide how hot, cold, wet, or windy it might be!

Date:

Astronomy

Oct. 21, 2012 Rise Set
Actual Time 7:43 AM CDT 6:26 PM CDT
Civil Twilight 7:13 AM CDT 6:55 PM CDT
Nautical Twilight 6:40 AM CDT 7:28 PM CDT
Astronomical Twilight 6:06 AM CDT 8:02 PM CDT
Moon 2:08 PM CDT (10/21) No Moon Set
Length of Visible Light 11h 41m
Length of Day
10h 43m
Waxing Crescent, 45% of the Moon is Illuminated
Oct 21
Waxing Crescent
Oct 21
First Quarter
Oct 29
Full
Nov 6
Last Quarter
Nov 13
New

Hourly Weather History & Observations

Time (CDT) Temp. Windchill Dew Point Humidity Pressure Visibility Wind Dir Wind Speed Gust Speed Precip Events Conditions
12:32 AM 44.6 °F 40.2 °F 42.8 °F 93% 29.75 in 10.0 mi SSE 8.1 mph - N/A   Clear
12:53 AM 46.4 °F 40.7 °F 42.8 °F 87% 29.75 in 10.0 mi SSE 12.7 mph 18.4 mph N/A   Clear
1:12 AM 46.4 °F 40.7 °F 42.8 °F 87% 29.74 in 10.0 mi SSE 12.7 mph 17.3 mph N/A   Clear
1:32 AM 46.4 °F 40.7 °F 42.8 °F 87% 29.74 in 10.0 mi SSE 12.7 mph 17.3 mph N/A   Clear
2:12 AM 46.4 °F 40.7 °F 42.8 °F 87% 29.74 in 10.0 mi SSE 12.7 mph - N/A   Clear
2:32 AM 46.4 °F 41.5 °F 42.8 °F 87% 29.74 in 10.0 mi SSE 10.4 mph 16.1 mph N/A   Clear
2:53 AM 46.4 °F 40.7 °F 42.8 °F 87% 29.74 in 10.0 mi SSE 12.7 mph 17.3 mph N/A   Clear
3:12 AM 46.4 °F 40.7 °F 42.8 °F 87% 29.73 in 10.0 mi SSE 12.7 mph 18.4 mph N/A   Clear
3:32 AM 46.4 °F 41.1 °F 42.8 °F 87% 29.73 in 10.0 mi SSE 11.5 mph 17.3 mph N/A   Clear
3:53 AM 46.4 °F 41.5 °F 42.8 °F 87% 29.73 in 10.0 mi SSE 10.4 mph 17.3 mph N/A   Clear
4:12 AM 46.4 °F 41.9 °F 42.8 °F 87% 29.73 in 10.0 mi South 9.2 mph - N/A   Clear
4:33 AM 46.4 °F 41.1 °F 42.8 °F 87% 29.73 in 10.0 mi SSE 11.5 mph - N/A   Clear
5:12 AM 44.6 °F 39.2 °F 42.8 °F 93% 29.73 in 10.0 mi SE 10.4 mph - N/A   Clear
6:12 AM 44.6 °F 39.7 °F 41.0 °F 87% 29.73 in 10.0 mi SE 9.2 mph - N/A   Clear
6:33 AM 44.6 °F 38.8 °F 42.8 °F 93% 29.72 in 10.0 mi SE 11.5 mph - N/A   Clear
6:52 AM 44.6 °F 38.8 °F 42.8 °F 93% 29.72 in 10.0 mi SE 11.5 mph - N/A   Clear
7:13 AM 44.6 °F 37.4 °F 42.8 °F 93% 29.71 in 10.0 mi SE 16.1 mph 21.9 mph N/A   Clear
7:33 AM 44.6 °F 38.1 °F 42.8 °F 93% 29.71 in 10.0 mi SSE 13.8 mph - N/A   Clear
8:33 AM 44.6 °F 37.8 °F 42.8 °F 93% 29.72 in 10.0 mi SSE 15.0 mph 18.4 mph N/A   Clear
8:52 AM 46.4 °F 39.8 °F 42.8 °F 87% 29.72 in 10.0 mi SSE 16.1 mph - N/A   Clear
9:33 AM 50.0 °F - 44.6 °F 82% 29.70 in 10.0 mi SSE 15.0 mph 21.9 mph N/A   Clear
10:13 AM 53.6 °F - 44.6 °F 72% 29.70 in 10.0 mi SSE 13.8 mph 19.6 mph N/A   Clear
10:33 AM 55.4 °F - 46.4 °F 72% 29.70 in 10.0 mi South 19.6 mph 27.6 mph N/A   Clear
10:52 AM 57.2 °F - 46.4 °F 67% 29.70 in 10.0 mi South 18.4 mph 26.5 mph N/A   Clear
11:13 AM 59.0 °F - 48.2 °F 67% 29.71 in 10.0 mi South 13.8 mph 19.6 mph N/A   Clear
11:33 AM 59.0 °F - 48.2 °F 67% 29.73 in 10.0 mi SSW 17.3 mph - N/A   Clear
12:13 PM 62.6 °F - 48.2 °F 59% 29.74 in 10.0 mi SSW 13.8 mph 20.7 mph N/A   Clear
12:33 PM 62.6 °F - 48.2 °F 59% 29.74 in 10.0 mi SW 13.8 mph - N/A   Clear
12:52 PM 66.2 °F - 50.0 °F 56% 29.74 in 10.0 mi WSW 9.2 mph - N/A   Clear
1:13 PM 64.4 °F - 46.4 °F 52% 29.74 in 10.0 mi SSW 10.4 mph - N/A   Clear
1:32 PM 66.2 °F - 46.4 °F 49% 29.74 in 10.0 mi SW 11.5 mph - N/A   Clear
1:52 PM 66.2 °F - 46.4 °F 49% 29.74 in 10.0 mi WSW 10.4 mph 16.1 mph N/A   Clear
2:13 PM 68.0 °F - 46.4 °F 46% 29.75 in 10.0 mi WSW 10.4 mph - N/A   Clear
2:32 PM 68.0 °F - 46.4 °F 46% 29.75 in 10.0 mi West 10.4 mph - N/A   Clear
2:52 PM 68.0 °F - 46.4 °F 46% 29.76 in 10.0 mi West 10.4 mph - N/A   Clear
3:13 PM 66.2 °F - 46.4 °F 49% 29.77 in 10.0 mi West 10.4 mph - N/A   Clear
3:32 PM 66.2 °F - 46.4 °F 49% 29.78 in 10.0 mi WNW 10.4 mph - N/A   Clear
3:52 PM 66.2 °F - 46.4 °F 49% 29.78 in 10.0 mi West 9.2 mph - N/A   Clear
4:13 PM 66.2 °F - 46.4 °F 49% 29.79 in 10.0 mi NW 9.2 mph - N/A   Clear
4:32 PM 64.4 °F - 46.4 °F 52% 29.79 in 10.0 mi NNW 11.5 mph - N/A   Clear
4:52 PM 64.4 °F - 46.4 °F 52% 29.80 in 10.0 mi NNW 11.5 mph - N/A   Clear
5:12 PM 62.6 °F - 46.4 °F 55% 29.80 in 10.0 mi North 8.1 mph - N/A   Clear
5:32 PM 62.6 °F - 46.4 °F 55% 29.81 in 10.0 mi NNW 10.4 mph - N/A   Clear
5:53 PM 60.8 °F - 46.4 °F 59% 29.82 in 10.0 mi NNW 10.4 mph - N/A   Clear
6:13 PM 57.2 °F - 46.4 °F 67% 29.82 in 10.0 mi NNW 9.2 mph - N/A   Clear
6:32 PM 55.4 °F - 46.4 °F 72% 29.83 in 10.0 mi NNW 11.5 mph - N/A   Clear
6:53 PM 53.6 °F - 46.4 °F 77% 29.84 in 10.0 mi NNW 9.2 mph - N/A   Clear
7:12 PM 53.6 °F - 46.4 °F 77% 29.84 in 10.0 mi NNW 13.8 mph - N/A   Clear
7:32 PM 51.8 °F - 46.4 °F 82% 29.85 in 10.0 mi NNW 15.0 mph 21.9 mph N/A   Clear
7:53 PM 51.8 °F - 46.4 °F 82% 29.85 in 10.0 mi NNW 15.0 mph - N/A   Clear
8:13 PM 50.0 °F - 46.4 °F 87% 29.86 in 10.0 mi NNW 16.1 mph 19.6 mph N/A   Clear
8:32 PM 50.0 °F - 46.4 °F 87% 29.87 in 10.0 mi NNW 17.3 mph 20.7 mph N/A   Clear
8:53 PM 48.2 °F - 46.4 °F 93% 29.88 in 10.0 mi NNW 11.5 mph - N/A   Clear
9:13 PM 48.2 °F - 46.4 °F 93% 29.89 in 10.0 mi NNW 8.1 mph - N/A   Clear
9:32 PM 48.2 °F - 46.4 °F 93% 29.90 in 10.0 mi NNW 8.1 mph - N/A   Clear
10:13 PM 48.2 °F - 46.4 °F 93% 29.90 in 7.0 mi North 8.1 mph - N/A   Clear
10:32 PM 46.4 °F 42.9 °F 44.6 °F 93% 29.90 in 7.0 mi NNW 6.9 mph - N/A   Clear
10:53 PM 46.4 °F 41.9 °F 44.6 °F 93% 29.90 in 7.0 mi North 9.2 mph - N/A   Clear
11:33 PM 48.2 °F - 46.4 °F 93% 29.90 in 10.0 mi North 6.9 mph - N/A   Mostly Cloudy
11:53 PM 48.2 °F - 46.4 °F 93% 29.90 in 10.0 mi North 6.9 mph - N/A   Scattered Clouds